Change the Weather History Date:

Wednesday, October 23, 2013

  Actual Average (KRDM) Record (KRDM)
Temperature  
Mean Temperature 50 °F 45 °F  
Max Temperature 68 °F 60 °F 82 °F (1965)
Min Temperature 32 °F 30 °F 18 °F (1980)
Degree Days  
Heating Degree Days 15 20  
Month to date heating degree days 376  
Since 1 July heating degree days 775  
Cooling Degree Days 0 0  
Month to date cooling degree days 0  
Year to date cooling degree days 222  
Moisture  
Dew Point 34 °F    
Average Humidity 60    
Maximum Humidity 93    
Minimum Humidity 26    
Precipitation  
Precipitation 0.00 in 0.02 in 0.19 in (1951)
Month to date precipitation 0.43  
Year to date precipitation 6.57  
Sea Level Pressure  
Sea Level Pressure 30.11 in    
Wind  
Wind Speed 5 mph (SW)    
Max Wind Speed 9 mph    
Max Gust Speed -    
Visibility 10 miles    
Events      
T = Trace of Precipitation, MM = Missing Value Source: NWS Daily Summary

Daily Weather History Graph

Daily Weather History Graph

Search for Another Location

Airport or City:

Trip Planner

Search our weather history database for the weather conditions in past years. The results will help you decide how hot, cold, wet, or windy it might be!

Date:

Astronomy

Oct. 23, 2013 Rise Set
Actual Time 7:30 AM PDT 6:07 PM PDT
Civil Twilight 7:00 AM PDT 6:36 PM PDT
Nautical Twilight 6:26 AM PDT 7:10 PM PDT
Astronomical Twilight 5:53 AM PDT 7:43 PM PDT
Moon 9:37 PM PDT (10/23) 11:56 AM PDT (10/23)
Length of Visible Light 11h 36m
Length of Day
10h 37m
Waning Gibbous, 78% of the Moon is Illuminated
Oct 23
Waning Gibbous
Oct 26
Last Quarter
Nov 3
New
Nov 9
First Quarter
Nov 17
Full

Hourly Weather History & Observations

Time (PDT) Temp. Windchill Dew Point Humidity Pressure Visibility Wind Dir Wind Speed Gust Speed Precip Events Conditions
12:15 AM 41.0 °F 36.4 °F 33.8 °F 76% 30.14 in 10.0 mi SSW 6.9 mph - N/A   Clear
12:35 AM 41.0 °F 36.4 °F 33.8 °F 76% 30.13 in 10.0 mi SW 6.9 mph - N/A   Clear
12:55 AM 41.0 °F 37.1 °F 33.8 °F 76% 30.13 in 10.0 mi SSW 5.8 mph - N/A   Clear
1:15 AM 41.0 °F 39.0 °F 33.8 °F 76% 30.13 in 10.0 mi South 3.5 mph - N/A   Clear
1:35 AM 41.0 °F 37.1 °F 32.0 °F 70% 30.14 in 10.0 mi SSW 5.8 mph - N/A   Clear
1:55 AM 41.0 °F 35.8 °F 32.0 °F 70% 30.13 in 10.0 mi SW 8.1 mph - N/A   Clear
2:15 AM 39.2 °F 34.2 °F 32.0 °F 75% 30.13 in 10.0 mi SW 6.9 mph - N/A   Clear
2:35 AM 39.2 °F 34.2 °F 32.0 °F 75% 30.13 in 10.0 mi SSW 6.9 mph - N/A   Clear
2:55 AM 39.2 °F 34.2 °F 32.0 °F 75% 30.13 in 10.0 mi SSW 6.9 mph - N/A   Clear
3:15 AM 39.2 °F 35.0 °F 32.0 °F 75% 30.13 in 10.0 mi SSW 5.8 mph - N/A   Clear
3:35 AM 39.2 °F 35.0 °F 32.0 °F 75% 30.13 in 10.0 mi SSW 5.8 mph - N/A   Clear
3:55 AM 39.2 °F 33.6 °F 32.0 °F 75% 30.12 in 10.0 mi SSW 8.1 mph - N/A   Clear
4:15 AM 39.2 °F 35.0 °F 32.0 °F 75% 30.12 in 10.0 mi South 5.8 mph - N/A   Clear
4:35 AM 39.2 °F 34.2 °F 32.0 °F 75% 30.12 in 10.0 mi South 6.9 mph - N/A   Clear
4:55 AM 37.4 °F 32.8 °F 32.0 °F 81% 30.12 in 10.0 mi South 5.8 mph - N/A   Clear
5:15 AM 37.4 °F 32.1 °F 32.0 °F 81% 30.12 in 10.0 mi South 6.9 mph - N/A   Clear
5:35 AM 37.4 °F 32.8 °F 32.0 °F 81% 30.12 in 10.0 mi South 5.8 mph - N/A   Clear
5:55 AM 37.4 °F 32.8 °F 32.0 °F 81% 30.13 in 10.0 mi South 5.8 mph - N/A   Clear
6:15 AM 35.6 °F 31.7 °F 32.0 °F 87% 30.13 in 10.0 mi SE 4.6 mph - N/A   Clear
6:35 AM 33.8 °F 27.7 °F 32.0 °F 93% 30.13 in 10.0 mi SSE 6.9 mph - N/A   Clear
6:55 AM 32.0 °F 27.5 °F 28.4 °F 87% 30.13 in 10.0 mi SSE 4.6 mph - N/A   Clear
7:15 AM 33.8 °F 28.6 °F 30.2 °F 87% 30.13 in 10.0 mi SSW 5.8 mph - N/A   Clear
7:35 AM 35.6 °F 30.7 °F 32.0 °F 87% 30.13 in 10.0 mi SSW 5.8 mph - N/A   Clear
7:55 AM 37.4 °F 33.8 °F 32.0 °F 81% 30.13 in 10.0 mi SSW 4.6 mph - N/A   Clear
8:15 AM 39.2 °F 35.0 °F 32.0 °F 75% 30.13 in 10.0 mi SSW 5.8 mph - N/A   Clear
8:35 AM 41.0 °F 38.0 °F 32.0 °F 70% 30.14 in 10.0 mi South 4.6 mph - N/A   Clear
8:55 AM 41.0 °F 37.1 °F 32.0 °F 70% 30.14 in 10.0 mi South 5.8 mph - N/A   Clear
9:15 AM 44.6 °F 43.1 °F 32.0 °F 61% 30.14 in 10.0 mi SSW 3.5 mph - N/A   Clear
9:35 AM 46.4 °F 45.2 °F 33.8 °F 62% 30.15 in 10.0 mi South 3.5 mph - N/A   Clear
9:55 AM 48.2 °F - 33.8 °F 58% 30.15 in 10.0 mi Calm Calm - N/A   Clear
10:15 AM 50.0 °F - 35.6 °F 58% 30.14 in 10.0 mi Calm Calm - N/A   Clear
10:35 AM 53.6 °F - 35.6 °F 51% 30.14 in 10.0 mi Calm Calm - N/A   Clear
10:55 AM 55.4 °F - 35.6 °F 47% 30.14 in 10.0 mi Calm Calm - N/A   Clear
11:15 AM 57.2 °F - 35.6 °F 44% 30.13 in 10.0 mi SSW 3.5 mph - N/A   Clear
11:35 AM 57.2 °F - 35.6 °F 44% 30.13 in 9.0 mi WSW 3.5 mph - N/A   Clear
11:55 AM 59.0 °F - 35.6 °F 42% 30.12 in 10.0 mi Calm Calm - N/A   Clear
12:15 PM 59.0 °F - 35.6 °F 42% 30.12 in 10.0 mi Calm Calm - N/A   Clear
12:35 PM 60.8 °F - 35.6 °F 39% 30.12 in 10.0 mi Calm Calm - N/A   Clear
12:55 PM 62.6 °F - 35.6 °F 37% 30.11 in 10.0 mi Calm Calm - N/A   Clear
1:15 PM 62.6 °F - 33.8 °F 34% 30.10 in 10.0 mi NW 4.6 mph - N/A   Clear
1:35 PM 64.4 °F - 33.8 °F 32% 30.09 in 10.0 mi NNE 5.8 mph - N/A   Clear
1:55 PM 64.4 °F - 33.8 °F 32% 30.08 in 10.0 mi NNE 4.6 mph - N/A   Clear
2:15 PM 66.2 °F - 33.8 °F 30% 30.08 in 10.0 mi NE 5.8 mph - N/A   Clear
2:35 PM 66.2 °F - 32.0 °F 28% 30.07 in 10.0 mi North 5.8 mph - N/A   Clear
2:55 PM 68.0 °F - 32.0 °F 26% 30.07 in 10.0 mi NNE 5.8 mph - N/A   Clear
3:15 PM 68.0 °F - 33.8 °F 28% 30.07 in 10.0 mi North 6.9 mph - N/A   Clear
3:35 PM 66.2 °F - 35.6 °F 32% 30.07 in 10.0 mi North 6.9 mph - N/A   Clear
3:55 PM 66.2 °F - 33.8 °F 30% 30.07 in 10.0 mi NNW 6.9 mph - N/A   Clear
4:15 PM 66.2 °F - 35.6 °F 32% 30.07 in 10.0 mi North 6.9 mph - N/A   Clear
4:35 PM 66.2 °F - 35.6 °F 32% 30.07 in 10.0 mi North 8.1 mph - N/A   Clear
4:55 PM 64.4 °F - 37.4 °F 37% 30.07 in 10.0 mi NNW 9.2 mph - N/A   Clear
5:15 PM 62.6 °F - 37.4 °F 39% 30.06 in 10.0 mi North 8.1 mph - N/A   Clear
5:35 PM 62.6 °F - 37.4 °F 39% 30.06 in 10.0 mi NNW 5.8 mph - N/A   Clear
5:55 PM 59.0 °F - 37.4 °F 45% 30.06 in 10.0 mi North 6.9 mph - N/A   Clear
6:15 PM 57.2 °F - 37.4 °F 48% 30.06 in 10.0 mi NNW 4.6 mph - N/A   Clear
6:35 PM 57.2 °F - 35.6 °F 44% 30.07 in 10.0 mi NW 3.5 mph - N/A   Clear
6:55 PM 53.6 °F - 35.6 °F 51% 30.08 in 10.0 mi NW 4.6 mph - N/A   Clear
7:15 PM 51.8 °F - 35.6 °F 54% 30.08 in 10.0 mi West 4.6 mph - N/A   Clear
7:35 PM 48.2 °F - 35.6 °F 62% 30.09 in 10.0 mi West 4.6 mph - N/A   Clear
7:55 PM 48.2 °F - 35.6 °F 62% 30.09 in 10.0 mi West 5.8 mph - N/A   Clear
8:15 PM 50.0 °F - 35.6 °F 58% 30.09 in 10.0 mi West 5.8 mph - N/A   Clear
8:35 PM 50.0 °F - 35.6 °F 58% 30.10 in 10.0 mi West 5.8 mph - N/A   Clear
8:55 PM 50.0 °F - 35.6 °F 58% 30.10 in 10.0 mi West 5.8 mph - N/A   Clear
9:15 PM 48.2 °F - 35.6 °F 62% 30.10 in 10.0 mi West 4.6 mph - N/A   Clear
9:35 PM 46.4 °F 44.3 °F 35.6 °F 66% 30.11 in 10.0 mi West 4.6 mph - N/A   Clear
9:55 PM 44.6 °F 43.1 °F 35.6 °F 71% 30.11 in 10.0 mi WSW 3.5 mph - N/A   Clear
10:15 PM 44.6 °F 43.1 °F 35.6 °F 71% 30.11 in 10.0 mi SW 3.5 mph - N/A   Clear
10:35 PM 42.8 °F - 35.6 °F 76% 30.12 in 10.0 mi Calm Calm - N/A   Clear
10:55 PM 41.0 °F - 33.8 °F 76% 30.12 in 10.0 mi Calm Calm - N/A   Clear
11:15 PM 41.0 °F 39.0 °F 33.8 °F 76% 30.12 in 10.0 mi SSW 3.5 mph - N/A   Clear
11:35 PM 41.0 °F 37.1 °F 33.8 °F 76% 30.12 in 10.0 mi SW 5.8 mph - N/A   Clear
11:55 PM 39.2 °F 34.2 °F 33.8 °F 81% 30.12 in 10.0 mi SSW 6.9 mph - N/A   Clear